Regional Weather Roundup
Issued by NWS

Home | Current Version | Previous Version | Graphics & Text | Print | Product List | Glossary On
Versions: 1 2 3 4 5 6 7 8 9 10 11 12 13 14 15 16 17 18 19 20 21 22 23 24 25 26 27 28 29 30 31 32 33 34 35 36 37 38 39 40 41 42 43 44 45 46 47 48 49 50
000
ASUS45 KSLC 200310
RWRUT

UTAH REGIONAL WEATHER ROUNDUP
NATIONAL WEATHER SERVICE SALT LAKE CITY UT
900 PM MDT WED JUL 19 2017

UTZ001>011-023>025-200400-

NORTHERN UTAH

CITY           SKY/WX    TMP DP  RH WIND       PRES   REMARKS
BRIGHAM CITY   CLOUDY    86  50  28 S14G20    30.01S
HILL AFB       NOT AVBL
LOGAN          MOCLDY    87  52  29 S10       30.01R
OGDEN          CLOUDY    83  53  35 S21G30    30.02R
SALT LAKE CITY CLOUDY    82  57  42 S17G25    30.03S
TOOELE VALLEY  CLOUDY    82  54  36 SW16      30.03F
WENDOVER       PTCLDY    90  52  27 SE16G26   29.98R
HEBER CITY     CLOUDY    70  55  60 E6        30.18F
WEST JORDAN    CLOUDY    76  63  62 S20       30.09F

$$

UTZ011>015-024>027-200400-

CENTRAL/NORTHEAST UTAH

CITY           SKY/WX    TMP DP  RH WIND       PRES   REMARKS
PROVO AIRPORT  CLOUDY    72  63  73 SW3       30.11F
MOAB/CANYONLAN CLOUDY    81  62  52 SE10      30.04R
DELTA          MOCLDY    84  45  24 S9        30.08S
PRICE          CLOUDY    81  44  27 NW7       30.18R
ROOSEVELT      LGT RAIN  72  55  56 SE15G24   30.22R
VERNAL         CLOUDY    76  50  40 E7        30.21R

$$

UTZ013>016-019>022-027-200400-

SOUTHERN UTAH

CITY           SKY/WX    TMP DP  RH WIND       PRES   REMARKS
BRYCE CANYON   PTCLDY    69  54  58 W7        30.36R
CEDAR CITY     MOCLDY    77  53  43 SW7       30.18R
MILFORD        MOCLDY    80  53  39 SW16      30.12R
ST GEORGE      CLOUDY    86  65  49 SW18      30.00R
HANKSVILLE     PTCLDY    84  50  30 W6        30.07R
BLANDING       PTCLDY    75  54  48 N5        30.23S

$$

REGIONAL REPORTS     COLORADO/ARIZONA

CITY           SKY/WX    TMP DP  RH WIND       PRES   REMARKS
CRAIG, CO      LGT RAIN  67  54  63 E8        30.32R
GRAND JUNCTION CLOUDY    78  58  49 NE26G32   30.07R
RIFLE, CO      CLOUDY    69  59  70 W13G21    30.24R
MONTROSE, CO   CLOUDY    76  52  43 S3        30.18R
CORTEZ, CO     CLOUDY    82  49  31 NW7       30.16R
COLORADO CITY    N/A     77  68  73 SE3       30.19R
PAGE, AZ       PTCLDY    86  55  34 W8        30.07R
GRAND CANYON   MOCLDY    65  59  81 SW6       30.32S
KINGMAN, AZ    CLOUDY    80  66  62 CALM      30.07S
FLAGSTAFF, AZ  CLOUDY    60  51  72 NE6       30.30F

$$

REGIONAL REPORTS    NEVADA/IDAHO/WYOMING

CITY           SKY/WX    TMP DP  RH WIND       PRES   REMARKS
LAS VEGAS, NV  MOCLDY    86  65  49 E5        29.96S
ELY, NY        MOCLDY    79  52  38 S18G29    30.15R
ELKO, NV       CLEAR     85  20   9 NW3       30.04R
POCATELLO, ID  CLOUDY    79  43  27 S6        30.01R
BURLEY, ID     CLEAR     76  55  48 S3        29.97S
FORT BRIDGER,    N/A     69  50  50 S16       30.30S
EVANSTON, WY   CLOUDY    67  51  56 S8        30.27F
ROCK SPRINGS,  LGT RAIN  64  54  69 SE9       30.29R
KEMMERER, WY     N/A     70  45  40 SW6       30.28F

$$



USA.gov is the U.S. government's official web portal to all federal, state and local government web resources and services.